Location: Coupvray
(48.8929°N, 2.7967°E)
Time: 21:06:02
(UTC+00:00)

Cosmos 1743 - Pass Details

Date: 14 July 2020
Orbit: 511 x 526 km, 82.6° (Epoch: 14 August)

Event Time Altitude Azimuth Distance (km) Brightness Sun altitude
Exits shadow 03:02:19 - 194° (SSW) 1,942 5.1 -8.1°
Reaches altitude 10° 03:02:49 10° 195° (SSW) 1,736 4.8 -8.0°
Maximum altitude 03:06:37 74° 280° (W) 543 2.7 -7.6°
Drops below altitude 10° 03:10:29 10° 6° (N) 1,759 6.2 -7.1°
Sets 03:12:38 0° 9° (N) 2,655 7.3 -6.9°
